Location: Hylvaty SDH
(49.9612°N, 16.4057°E)
Time: 20:34:28
(UTC+01:00)

Vanguard 1 Rocket - Pass Details

Date: 10 October 2020
Orbit: 656 x 4221 km, 34.3° (Epoch: 30 October)

Event Time Altitude Azimuth Distance (km) Brightness Sun altitude
Rises 18:30:53 0° 252° (WSW) 4,405 13.1 -3.7°
Reaches altitude 10° 18:33:32 10° 244° (WSW) 3,769 12.0 -4.1°
Maximum altitude 18:42:54 39° 180° (S) 3,174 10.2 -5.6°
Drops below altitude 10° 18:59:27 10° 122° (ESE) 6,556 11.2 -8.3°
Enters shadow 19:05:13 - 117° (ESE) 7,841 11.6 -9.2°
Sets 19:06:00 0° 116° (ESE) 8,009 - -9.3°
